International Virtual Aviation Organisation

Russian Federation and Kazakhstan MCD

 

Карточка аэропорта ULAA

Внимание!
Информация на этой странице в стадии наполнения.
Если вы не увидели какой-то информации, или заметили неточность - пожалуйста сообщите нам!
Спасибо!
Команда RU-STAFF
Название аэропортаТалаги
Название аэропорта (англ.)Talagi
Превышение62 ft. (18.9 m.)
Координаты64°36.018', 40°43.002'
Высота перехода800m
Эшелон переходаQFE>=760mm:FL040; QFE<760=>733:FL050; QFE<733:FL060
Коды ответчика3120-3127
Зона ОрВДАрхангельск РПИ (ULAA)
Данные METARNODATA
Проноз погоды (TAF)ULAA 060500Z 0606/0706 24003MPS 4000 BR BKN005 TEMPO 0606/0610 VRB01MPS 0300 -SHSN FZFG BKN002 BKN011CB FM061000 18003MPS 6000 BKN011 TEMPO 0610/0612 14003G08MPS 1000 SN BR BKN004 FM061200 18003MPS 9999 BKN016 TEMPO 0612/0706 12004G09MPS 6000 -SHSN BKN011CB
NOTAMshow/hide NOTAM
AWOS   TABLE

Информация о ВПП


Диспетчерские позиции

Позывной Наименование органа УВД Частота
ULAA_APPАрхангельск-Подход122.0
ULAA_TWRАрхангельск-Вышка121.8



Спутниковое изображение